Location: Albany
(42.6526°N, 73.7562°W)
Time: 04:19:38
(UTC+00:00)

NOAA 12 - Visible Passes

Search period start: 28 February 2020 00:00
Search period end: 09 March 2020 00:00
Orbit: 796 x 814 km, 98.5° (Epoch: 27 February)

Date Brightness Start Highest point End Pass type
(mag) Time Alt. Az. Time Alt. Az. Time Alt. Az.
28 Feb 7.5 00:19:07 10° WSW 00:21:01 12° W 00:22:56 10° WNW visible
28 Feb 6.3 10:49:55 10° NNE 10:54:39 32° E 10:59:21 10° SSE visible
28 Feb 7.0 23:51:46 10° SW 23:55:40 21° W 23:59:35 10° NW visible
29 Feb 7.2 10:25:38 10° NE 10:29:22 19° E 10:33:06 10° SE visible
29 Feb 6.1 23:25:37 10° SSW 23:30:24 34° W 23:35:14 10° NNW visible
01 Mar 7.8 10:02:43 10° ENE 10:04:00 11° E 10:05:18 10° ESE visible
03 Mar 7.5 00:18:42 10° WSW 00:20:38 12° W 00:22:35 10° WNW visible
03 Mar 6.3 10:49:32 10° NNE 10:54:16 32° E 10:58:57 10° SSE visible
03 Mar 7.0 23:51:22 10° SW 23:55:16 21° W 23:59:13 10° NW visible
04 Mar 7.2 10:25:16 10° NE 10:28:59 19° E 10:32:42 10° SE visible
04 Mar 6.1 23:25:13 10° SSW 23:30:01 34° W 23:34:51 10° NNW visible
05 Mar 7.8 10:02:23 10° ENE 10:03:37 11° E 10:04:51 10° E visible
07 Mar 7.5 00:18:16 10° WSW 00:20:15 12° W 00:22:14 10° WNW visible
07 Mar 6.4 10:49:10 10° NNE 10:53:53 31° E 10:58:33 10° SSE visible
07 Mar 7.0 23:50:58 10° SW 23:54:54 21° W 23:58:50 10° NW visible
08 Mar 7.2 10:24:54 10° NE 10:28:36 19° E 10:32:17 10° SE visible
08 Mar 6.1 23:24:50 10° SSW 23:29:38 34° W 23:34:29 10° NNW visible
